Flag for U.S.A. Weather past 2 weeks in Warren, Michigan, U.S.A.

Now
65 °F

Clear.


Feels Like: 65 °F
Forecast: 63 / 76 °F
Wind: 5 mph from South

Location: Detroit City Airport

Current Time: Aug 28, 2015 at 11:57:10 PM

Latest Report: Aug 28, 2015 at 10:53 PM


Visibility: 10 mi

Pressure: 30.14 "Hg

Humidity: 78%

Dew point: 58 °F

Location of WarrenLocation

Historic Weather in Warren — Graph

°F

Warren temperature yesterday

Maximum temperature yesterday: 67 °F (at 2:53 PM)
Minimum temperature yesterday: 56 °F (at 6:53 AM)
Average temperature yesterday: 62 °F

Past Weeks' High & Low Weather Summary

 TemperatureHumidityPressure
High88 °F (Aug 17, 12:53 PM)93% (Aug 20, 1:53 AM)30.22 "Hg (Aug 20, 1:53 AM)
Low52 °F (Aug 28, 6:53 AM)33% (Aug 21, 6:53 PM)29.68 "Hg (Aug 20, 3:04 AM)
Average71 °F67%30.01 "Hg
* Reported Aug 13 9:53 PM — Aug 28 9:53 PM, Warren, Weather by CustomWeather, © 2015

Note: Actual official high and low records may vary slightly from our data, if they occured in-between our weather recording intervals... More about our weather records

Advertising

Warren weather history for previous 24 hours

 ConditionsComfort  
Time TempWeatherWind HumidityBarometerVisibility
9:53 PM
Fri, Aug 28
67 °FClear.6 mph73%30.14 "Hg10 mi
8:53 PM68 °FSunny.5 mph68%30.14 "Hg10 mi
7:53 PM71 °FSunny.6 mph61%30.12 "Hg10 mi
6:53 PM72 °FSunny.6 mph59%30.13 "Hg10 mi
5:53 PM74 °FSunny.6 mph53%30.14 "Hg10 mi
4:53 PM74 °FPassing clouds.6 mph56%30.14 "Hg10 mi
3:53 PM75 °FPartly sunny.No wind52%30.15 "Hg10 mi
2:53 PM73 °FPartly sunny.7 mph53%30.17 "Hg10 mi
1:53 PM73 °FPartly sunny.8 mph55%30.19 "Hg10 mi
1:01 PM71 °FMore clouds than sun.No wind63%30.21 "Hg10 mi
11:53 AM69 °FBroken clouds.5 mph68%30.22 "Hg10 mi
10:53 AM68 °FScattered clouds.3 mph73%30.22 "Hg9 mi
9:53 AM64 °FOvercast.No wind73%30.21 "Hg8 mi
8:53 AM59 °FOvercast.No wind84%30.22 "Hg6 mi
7:53 AM53 °FSunny.No wind93%30.21 "Hg9 mi
6:53 AM52 °FClear.No wind89%30.20 "Hg8 mi
5:53 AM53 °FClear.No wind86%30.19 "Hg10 mi
4:53 AM53 °FClear.No wind89%30.18 "Hg10 mi
3:53 AM54 °FClear.No wind86%30.18 "Hg10 mi
2:53 AM54 °FClear.No wind90%30.16 "Hg10 mi
1:53 AM55 °FClear.No wind90%30.17 "Hg10 mi
12:53 AM56 °FClear.No wind87%30.18 "Hg9 mi
11:53 PM
Thu, Aug 27
56 °FClear.No wind87%30.19 "Hg10 mi
Weather by CustomWeather, © 2015

See weather overviewHow to use our weather pages